This is the latest recevied weather packets stored in our database for station/object S50ME-11. If no packets are shown the sender has not sent any weather packets the latest 10 day(s).
| Time | Temp. | Humidity | Pressure | Rain* | Wind** | Luminosity | Snow |
|---|---|---|---|---|---|---|---|
| 1777671048 | 12.22° C | 39% | 1027.9 hPa | - | - | - | - |
| 1777671045 | 12.22° C | 39% | 1027.9 hPa | - | - | - | - |
| 1777670146 | 12.22° C | 39% | 1028.5 hPa | - | - | - | - |
| 1777670143 | 12.22° C | 39% | 1028.5 hPa | - | - | - | - |
| 1777669246 | 12.22° C | 39% | 1028.3 hPa | - | - | - | - |
| 1777669243 | 12.22° C | 39% | 1028.3 hPa | - | - | - | - |
| 1777668346 | 12.22° C | 39% | 1028.3 hPa | - | - | - | - |
| 1777668343 | 12.22° C | 39% | 1028.3 hPa | - | - | - | - |
| 1777667445 | 12.78° C | 39% | 1028 hPa | - | - | - | - |
| 1777667442 | 12.78° C | 39% | 1028 hPa | - | - | - | - |
| 1777666545 | 12.78° C | 39% | 1027.9 hPa | - | - | - | - |
| 1777666542 | 12.78° C | 39% | 1027.9 hPa | - | - | - | - |
| 1777665645 | 13.33° C | 39% | 1027.8 hPa | - | - | - | - |
| 1777665642 | 13.33° C | 39% | 1027.8 hPa | - | - | - | - |
| 1777664744 | 13.89° C | 39% | 1027.7 hPa | - | - | - | - |
| 1777664741 | 13.89° C | 39% | 1027.7 hPa | - | - | - | - |
| 1777663844 | 14.44° C | 38% | 1027.2 hPa | - | - | - | - |
| 1777663841 | 14.44° C | 38% | 1027.2 hPa | - | - | - | - |
| 1777662944 | 15° C | 38% | 1027.2 hPa | - | - | - | - |
| 1777662941 | 15° C | 38% | 1027.2 hPa | - | - | - | - |
| 1777662044 | 16.11° C | 38% | 1027.3 hPa | - | - | - | - |
| 1777662040 | 16.11° C | 38% | 1027.3 hPa | - | - | - | - |
| 1777661144 | 16.67° C | 37% | 1027 hPa | - | - | - | - |
| 1777661140 | 16.67° C | 37% | 1027 hPa | - | - | - | - |
| 1777660279 | 17.78° C | 37% | 1027.7 hPa | - | - | - | - |
* Rain since midnight (hover to see other rain measurements)
** Current wind speed in m/s (hover to see current wind gust speed)